When you browse on this site, cookies collect data to enhance your experience and personalize the content and advertising you see.
Visit our Privacy Policy to learn more. By continuing to use the site, you agree to this use of cookies and data.
  • En España
  • Lista de países
  • Para 7 días
  • Temperatura del agua
  • El tiempo en el mapa
  • Informadores
  • user-avatar
    Iniciar sesión

    Tiempo cada hora La Massana

    Hoy, 16 Diciembre, Lunes

    Tiempo Temperatura Precipitaciones Viento Presión Humedad
    00:00 -1°C° 0 mm 2 mps 604 mmHg 62%
    01:00 -1°C° 0 mm 2 mps 603 mmHg 66%
    02:00 -1°C° 0 mm 3 mps 603 mmHg 69%
    03:00 -1°C° 0 mm 3 mps 603 mmHg 72%
    04:00 -1°C° 0 mm 3 mps 603 mmHg 74%
    05:00 -1°C° 0 mm 3 mps 603 mmHg 75%
    06:00 0°C° 0 mm 3 mps 603 mmHg 77%
    07:00 0°C° 0 mm 3 mps 603 mmHg 75%
    08:00 +1°C° 0 mm 3 mps 603 mmHg 73%
    09:00 +1°C° 0 mm 4 mps 603 mmHg 71%
    10:00 +3°C° 0 mm 4 mps 603 mmHg 68%
    11:00 +4°C° 0 mm 4 mps 603 mmHg 66%
    12:00 +5°C° 0 mm 4 mps 603 mmHg 63%
    13:00 +4°C° 0 mm 4 mps 603 mmHg 69%
    14:00 +4°C° 0 mm 4 mps 602 mmHg 75%
    15:00 +4°C° 0 mm 4 mps 602 mmHg 81%
    16:00 +3°C° 0 mm 4 mps 601 mmHg 83%
    17:00 +1°C° 0 mm 4 mps 601 mmHg 84%
    18:00 0°C° 0 mm 4 mps 600 mmHg 85%
    19:00 0°C° 0 mm 4 mps 600 mmHg 84%
    20:00 0°C° 0 mm 4 mps 600 mmHg 83%
    21:00 +1°C° 0 mm 3 mps 600 mmHg 81%
    22:00 -1°C° 0.2 mm 4 mps 600 mmHg 83%
    23:00 -1°C° 0.2 mm 4 mps 599 mmHg 85%

    Mañana, 17 Diciembre, Martes

    Tiempo Temperatura Precipitaciones Viento Presión Humedad
    00:00 -1°C° 0.2 mm 4 mps 599 mmHg 87%
    01:00 -1°C° 1 mm 4 mps 599 mmHg 88%
    02:00 0°C° 1 mm 3 mps 599 mmHg 89%
    03:00 0°C° 1 mm 3 mps 599 mmHg 90%
    04:00 0°C° 0 mm 3 mps 598 mmHg 89%
    05:00 0°C° 0 mm 3 mps 598 mmHg 89%
    06:00 0°C° 0 mm 3 mps 598 mmHg 88%
    07:00 0°C° 0 mm 3 mps 599 mmHg 88%
    08:00 +1°C° 0 mm 3 mps 599 mmHg 88%
    09:00 +1°C° 0 mm 3 mps 600 mmHg 88%
    10:00 +2°C° 0.2 mm 3 mps 600 mmHg 86%
    11:00 +2°C° 0.2 mm 3 mps 600 mmHg 85%
    12:00 +3°C° 0.2 mm 4 mps 600 mmHg 83%
    13:00 +2°C° 1.5 mm 3 mps 600 mmHg 87%
    14:00 +1°C° 1.5 mm 3 mps 600 mmHg 91%
    15:00 +2°C° 1.5 mm 2 mps 600 mmHg 95%
    16:00 +1°C° 1.6 mm 2 mps 600 mmHg 96%
    17:00 +1°C° 1.6 mm 2 mps 600 mmHg 96%
    18:00 +1°C° 1.6 mm 2 mps 601 mmHg 96%
    19:00 +1°C° 0.7 mm 2 mps 601 mmHg 96%
    20:00 +1°C° 0.7 mm 1 mps 602 mmHg 96%
    21:00 +1°C° 0.7 mm 1 mps 602 mmHg 96%
    22:00 +1°C° 0.3 mm 1 mps 602 mmHg 96%
    23:00 +1°C° 0.3 mm 1 mps 602 mmHg 96%

    Pasado mañana, 18 Diciembre, Miércoles

    Tiempo Temperatura Precipitaciones Viento Presión Humedad
    00:00 +1°C° 0.3 mm 1 mps 602 mmHg 97%
    01:00 +2°C° 0.1 mm 1 mps 602 mmHg 97%
    02:00 +2°C° 0.1 mm 1 mps 603 mmHg 96%
    03:00 +2°C° 0.1 mm 1 mps 603 mmHg 96%
    04:00 +1°C° 0 mm 1 mps 603 mmHg 96%
    05:00 +1°C° 0 mm 1 mps 603 mmHg 95%
    06:00 +1°C° 0 mm 1 mps 603 mmHg 95%
    07:00 +1°C° 0 mm 1 mps 603 mmHg 93%
    08:00 +2°C° 0 mm 1 mps 603 mmHg 90%
    09:00 +2°C° 0 mm 1 mps 604 mmHg 88%
    10:00 +3°C° 0 mm 1 mps 604 mmHg 86%
    11:00 +4°C° 0 mm 1 mps 604 mmHg 84%
    12:00 +6°C° 0 mm 1 mps 605 mmHg 82%
    13:00 +5°C° 0 mm 1 mps 605 mmHg 85%
    14:00 +4°C° 0 mm 2 mps 604 mmHg 87%
    15:00 +3°C° 0 mm 2 mps 604 mmHg 90%
    16:00 +2°C° 0 mm 2 mps 603 mmHg 91%
    17:00 +1°C° 0 mm 2 mps 603 mmHg 92%
    18:00 -1°C° 0 mm 2 mps 603 mmHg 93%
    19:00 -1°C° 0 mm 2 mps 603 mmHg 92%
    20:00 -2°C° 0 mm 2 mps 603 mmHg 92%
    21:00 -2°C° 0 mm 2 mps 603 mmHg 91%
    22:00 -2°C° 0 mm 2 mps 603 mmHg 90%
    23:00 -2°C° 0 mm 2 mps 603 mmHg 90%

    19 Diciembre, Jueves

    Tiempo Temperatura Precipitaciones Viento Presión Humedad
    00:00 -2°C° 0 mm 3 mps 603 mmHg 89%
    01:00 -1°C° 0 mm 2 mps 603 mmHg 89%
    02:00 -1°C° 0 mm 2 mps 602 mmHg 89%
    03:00 +1°C° 0 mm 2 mps 602 mmHg 89%
    04:00 +1°C° 0.3 mm 2 mps 602 mmHg 91%
    05:00 +1°C° 0.3 mm 2 mps 602 mmHg 93%
    06:00 +1°C° 0.3 mm 2 mps 602 mmHg 95%
    07:00 0°C° 0.9 mm 3 mps 602 mmHg 95%
    08:00 +1°C° 0.9 mm 3 mps 602 mmHg 95%
    09:00 +1°C° 0.9 mm 3 mps 601 mmHg 95%
    10:00 0°C° 1.6 mm 4 mps 601 mmHg 94%
    11:00 0°C° 1.6 mm 4 mps 600 mmHg 94%
    12:00 0°C° 1.6 mm 4 mps 600 mmHg 93%
    13:00 0°C° 1.7 mm 4 mps 600 mmHg 94%
    14:00 0°C° 1.7 mm 4 mps 599 mmHg 95%
    15:00 -1°C° 1.7 mm 4 mps 599 mmHg 96%
    16:00 0°C° 0.6 mm 3 mps 599 mmHg 96%
    17:00 -1°C° 0.6 mm 3 mps 599 mmHg 95%
    18:00 -2°C° 0.6 mm 3 mps 599 mmHg 95%
    19:00 -2°C° 0 mm 3 mps 599 mmHg 94%
    20:00 -4°C° 0 mm 3 mps 599 mmHg 94%
    21:00 -4°C° 0 mm 3 mps 599 mmHg 93%
    22:00 -4°C° 0 mm 3 mps 598 mmHg 93%
    23:00 -4°C° 0 mm 3 mps 598 mmHg 92%

    20 Diciembre, Viernes

    Tiempo Temperatura Precipitaciones Viento Presión Humedad
    00:00 -4°C° 0 mm 3 mps 598 mmHg 92%
    01:00 -4°C° 2.1 mm 3 mps 596 mmHg 93%
    02:00 -4°C° 2.1 mm 3 mps 595 mmHg 93%
    03:00 -4°C° 2.1 mm 4 mps 594 mmHg 94%
    04:00 -4°C° 3.1 mm 3 mps 593 mmHg 94%
    05:00 -2°C° 3.1 mm 3 mps 593 mmHg 95%
    06:00 -2°C° 3.1 mm 3 mps 592 mmHg 95%
    07:00 -1°C° 0.2 mm 2 mps 593 mmHg 95%
    08:00 -1°C° 0.2 mm 2 mps 594 mmHg 96%
    09:00 +1°C° 0.2 mm 1 mps 594 mmHg 96%
    10:00 +2°C° 0 mm 1 mps 595 mmHg 96%
    11:00 +2°C° 0 mm 1 mps 595 mmHg 95%
    12:00 +1°C° 0 mm 2 mps 595 mmHg 95%
    13:00 +2°C° 0 mm 1 mps 595 mmHg 95%
    14:00 +2°C° 0 mm 1 mps 595 mmHg 95%
    15:00 +1°C° 0 mm 1 mps 595 mmHg 95%
    16:00 +1°C° 0.1 mm 1 mps 595 mmHg 96%
    17:00 0°C° 0.1 mm 1 mps 595 mmHg 97%
    18:00 -2°C° 0.1 mm 0 mps 595 mmHg 97%
    19:00 -1°C° 0.3 mm 1 mps 595 mmHg 97%
    20:00 -1°C° 0.3 mm 1 mps 595 mmHg 97%
    21:00 -1°C° 0.3 mm 1 mps 596 mmHg 97%
    22:00 -2°C° 0.5 mm 1 mps 596 mmHg 96%
    23:00 -4°C° 0.5 mm 2 mps 596 mmHg 96%

    21 Diciembre, Sábado

    Tiempo Temperatura Precipitaciones Viento Presión Humedad
    00:00 -4°C° 0.5 mm 2 mps 597 mmHg 95%
    01:00 -5°C° 0.5 mm 2 mps 597 mmHg 94%
    02:00 -5°C° 0.5 mm 2 mps 597 mmHg 94%
    03:00 -5°C° 0.5 mm 2 mps 598 mmHg 94%
    04:00 -5°C° 0.2 mm 2 mps 598 mmHg 93%
    05:00 -6°C° 0.2 mm 2 mps 599 mmHg 93%
    06:00 -6°C° 0.2 mm 2 mps 599 mmHg 93%
    07:00 -5°C° 0.1 mm 2 mps 600 mmHg 92%
    08:00 -5°C° 0.1 mm 2 mps 601 mmHg 92%
    09:00 -4°C° 0.1 mm 2 mps 602 mmHg 91%
    10:00 -3°C° 0 mm 2 mps 602 mmHg 90%
    11:00 -2°C° 0 mm 2 mps 603 mmHg 89%
    12:00 -1°C° 0 mm 2 mps 603 mmHg 87%
    13:00 -1°C° 0 mm 2 mps 603 mmHg 88%
    14:00 -2°C° 0 mm 2 mps 603 mmHg 89%
    15:00 -2°C° 0 mm 2 mps 603 mmHg 90%
    16:00 -3°C° 0 mm 2 mps 603 mmHg 89%
    17:00 -5°C° 0 mm 2 mps 603 mmHg 88%
    18:00 -6°C° 0 mm 2 mps 603 mmHg 87%
    19:00 -6°C° 0 mm 2 mps 603 mmHg 80%
    20:00 -6°C° 0 mm 2 mps 604 mmHg 73%
    21:00 -6°C° 0 mm 2 mps 604 mmHg 66%
    22:00 -5°C° 0 mm 2 mps 605 mmHg 64%
    23:00 -4°C° 0 mm 2 mps 605 mmHg 62%
    Mostrar más